GEFSCGP_prec_meanprecacc_366.txt.gz
Total_Precipitation_Accumulation
2.35 1.94 1.34 0.82 0.67 0.62 0.56 0.66 0.75 0.74 0.74 0.82 0.87 0.74 0.71 0.64 0.63 0.68 0.66 0.71 0.86 1.08 1.31 1.48 1.70 1.98 2.21 2.27 2.33 2.53 2.77 2.92 3.12 3.35 3.40 3.29 3.27 3.28 3.23 3.05 2.88 2.72 2.57 2.48
2.00 1.41 0.68 0.49 0.51 0.54 0.57 0.67 0.70 0.69 0.68 0.80 0.86 0.79 0.72 0.73 0.69 0.69 0.66 0.67 0.81 1.01 1.19 1.38 1.60 1.84 2.03 2.20 2.28 2.47 2.69 2.80 2.84 3.04 3.30 3.27 3.30 3.38 3.46 3.40 3.22 3.01 2.88 2.79
1.52 0.91 0.52 0.57 0.66 0.63 0.53 0.56 0.60 0.66 0.70 0.85 0.95 0.98 0.76 0.73 0.68 0.62 0.60 0.65 0.80 0.99 1.11 1.25 1.45 1.64 1.81 2.07 2.29 2.40 2.57 2.73 2.78 3.06 3.57 3.62 3.60 3.55 3.56 3.54 3.47 3.28 3.08 2.98
1.31 0.76 0.59 0.64 0.62 0.60 0.57 0.40 0.51 0.63 0.89 1.09 1.05 1.32 0.86 0.78 0.74 0.64 0.60 0.64 0.80 0.94 1.00 1.10 1.34 1.50 1.62 1.81 2.11 2.38 2.54 2.76 2.98 3.24 3.53 3.63 3.46 3.38 3.31 3.27 3.36 3.42 3.21 3.08
1.27 0.86 0.72 0.68 0.55 0.54 0.53 0.41 0.54 0.66 0.86 1.07 0.87 1.07 0.92 0.73 0.77 0.76 0.71 0.72 0.85 0.96 1.03 1.09 1.29 1.43 1.50 1.63 1.85 2.10 2.39 2.58 2.90 3.18 3.37 3.60 3.42 3.16 3.23 3.27 3.22 3.30 3.29 3.13
0.89 0.74 0.79 0.67 0.48 0.52 0.56 0.59 0.74 0.88 1.16 1.31 0.76 0.84 0.92 0.82 0.81 0.79 0.78 0.84 0.95 1.03 1.06 1.15 1.29 1.30 1.34 1.47 1.63 1.79 2.03 2.19 2.37 2.66 3.00 3.29 3.35 3.23 3.17 3.14 3.17 3.14 3.13 3.08
1.07 0.87 0.72 0.64 0.69 0.67 0.73 1.10 1.52 1.68 1.59 1.07 0.58 0.66 0.91 0.81 0.74 0.75 0.81 0.87 0.92 0.99 1.02 1.14 1.23 1.15 1.14 1.28 1.48 1.59 1.71 1.83 1.97 2.18 2.46 2.79 3.04 3.12 3.12 3.08 3.06 3.11 3.00 2.90
1.11 1.18 0.73 0.61 0.70 0.76 0.69 0.90 1.22 1.23 0.89 0.62 0.42 0.63 0.84 0.80 0.77 0.76 0.82 0.82 0.85 0.92 0.98 1.10 1.25 1.19 1.12 1.18 1.31 1.38 1.45 1.62 1.74 1.84 2.03 2.22 2.45 2.65 2.67 2.78 2.81 2.85 2.86 2.82
0.82 0.82 0.50 0.42 0.37 0.49 0.67 0.64 0.62 1.02 0.75 0.57 0.55 0.64 0.78 0.74 0.74 0.77 0.82 0.79 0.79 0.83 0.94 1.03 1.10 1.09 1.04 1.07 1.14 1.25 1.31 1.42 1.48 1.55 1.68 1.72 1.86 2.07 2.21 2.28 2.35 2.40 2.48 2.59
0.64 0.72 0.47 0.35 0.35 0.41 0.47 0.49 0.67 1.20 1.14 0.75 0.54 0.55 0.81 0.77 0.76 0.74 0.72 0.71 0.75 0.81 0.86 0.89 0.89 0.87 0.87 0.96 1.07 1.14 1.21 1.22 1.23 1.28 1.40 1.44 1.47 1.60 1.76 1.89 1.93 1.96 2.03 2.16
0.45 0.65 0.55 0.43 0.50 0.44 0.40 0.56 0.73 0.95 0.90 0.82 0.59 0.61 0.66 0.68 0.70 0.70 0.66 0.67 0.70 0.73 0.70 0.70 0.70 0.72 0.76 0.81 0.87 0.95 1.02 1.08 1.10 1.09 1.16 1.24 1.29 1.37 1.52 1.66 1.71 1.79 1.82 1.85
0.43 0.65 0.58 0.37 0.26 0.20 0.28 0.42 0.66 1.08 0.88 0.69 0.63 0.60 0.51 0.52 0.53 0.55 0.55 0.56 0.56 0.57 0.56 0.59 0.63 0.65 0.70 0.71 0.72 0.83 0.92 1.00 1.00 0.96 1.00 1.07 1.14 1.20 1.30 1.39 1.48 1.58 1.62 1.66
0.68 0.93 0.86 0.60 0.42 0.32 0.37 0.38 0.48 0.82 1.14 0.83 0.72 0.63 0.46 0.42 0.41 0.41 0.45 0.48 0.47 0.47 0.46 0.48 0.52 0.57 0.60 0.66 0.68 0.75 0.80 0.88 0.90 0.89 0.94 0.98 1.00 1.04 1.09 1.13 1.23 1.28 1.33 1.43
0.89 0.97 0.74 0.61 0.44 0.47 0.48 0.32 0.39 1.02 1.43 0.72 0.39 0.44 0.40 0.38 0.39 0.40 0.44 0.44 0.42 0.42 0.40 0.40 0.44 0.47 0.51 0.59 0.63 0.64 0.66 0.74 0.84 0.86 0.87 0.92 0.90 0.91 0.96 0.97 1.02 1.06 1.09 1.11
0.79 0.85 0.41 0.27 0.25 0.39 0.43 0.33 0.36 0.65 0.66 0.68 0.38 0.32 0.37 0.38 0.41 0.44 0.43 0.39 0.38 0.39 0.38 0.36 0.41 0.43 0.47 0.54 0.57 0.57 0.61 0.68 0.76 0.84 0.81 0.81 0.84 0.84 0.85 0.86 0.86 0.87 0.90 0.90
0.70 0.76 0.43 0.31 0.19 0.29 0.37 0.25 0.24 0.29 0.34 0.39 0.31 0.34 0.33 0.36 0.39 0.41 0.41 0.39 0.43 0.43 0.43 0.39 0.38 0.40 0.43 0.51 0.61 0.64 0.69 0.75 0.73 0.78 0.78 0.75 0.78 0.81 0.83 0.80 0.75 0.79 0.85 0.90
0.68 0.76 0.83 0.50 0.20 0.43 0.52 0.32 0.26 0.25 0.30 0.37 0.44 0.43 0.35 0.40 0.50 0.56 0.49 0.39 0.42 0.47 0.50 0.45 0.42 0.44 0.47 0.57 0.76 0.87 0.89 0.89 0.86 0.83 0.80 0.76 0.76 0.78 0.81 0.84 0.84 0.84 0.86 0.92
0.63 0.78 1.16 0.84 0.50 0.73 0.47 0.25 0.22 0.25 0.34 0.40 0.39 0.35 0.37 0.44 0.50 0.52 0.45 0.39 0.42 0.46 0.53 0.52 0.51 0.55 0.57 0.65 0.78 0.91 0.97 1.00 1.00 0.99 0.96 0.90 0.91 0.95 0.99 1.01 1.05 1.04 1.03 1.06
0.41 0.84 1.42 1.24 0.84 0.45 0.26 0.19 0.28 0.36 0.39 0.39 0.37 0.32 0.30 0.31 0.36 0.39 0.37 0.37 0.44 0.50 0.54 0.55 0.55 0.60 0.67 0.72 0.77 0.89 1.03 1.05 1.07 1.18 1.26 1.23 1.20 1.23 1.27 1.30 1.33 1.32 1.31 1.31
0.42 0.84 1.61 1.49 1.17 0.54 0.28 0.15 0.23 0.36 0.53 0.32 0.32 0.34 0.31 0.33 0.46 0.42 0.37 0.39 0.41 0.45 0.48 0.51 0.52 0.56 0.69 0.81 0.90 1.03 1.17 1.22 1.24 1.33 1.42 1.39 1.36 1.36 1.36 1.35 1.32 1.29 1.26 1.27
0.63 1.15 1.52 1.24 1.14 0.53 0.28 0.16 0.24 0.62 0.67 0.34 0.32 0.36 0.39 0.49 0.56 0.44 0.39 0.42 0.47 0.49 0.49 0.52 0.57 0.68 0.86 1.01 1.15 1.33 1.38 1.39 1.32 1.32 1.31 1.26 1.20 1.14 1.11 1.09 1.04 1.01 0.98 0.98
0.49 0.79 0.90 1.00 1.28 0.72 0.27 0.25 0.51 0.66 0.40 0.30 0.27 0.32 0.39 0.39 0.35 0.34 0.34 0.37 0.46 0.51 0.52 0.56 0.66 0.77 0.88 0.99 1.13 1.22 1.21 1.16 1.10 1.03 1.00 0.96 0.92 0.89 0.87 0.89 0.88 0.83 0.82 0.83
0.46 0.62 0.74 0.81 0.79 0.50 0.36 0.44 0.49 0.43 0.38 0.31 0.33 0.33 0.34 0.34 0.30 0.30 0.31 0.31 0.36 0.42 0.45 0.50 0.55 0.59 0.64 0.71 0.81 0.87 0.88 0.83 0.82 0.77 0.72 0.72 0.72 0.74 0.74 0.76 0.80 0.79 0.77 0.79
0.46 0.45 0.59 0.64 0.51 0.41 0.40 0.36 0.35 0.34 0.38 0.35 0.34 0.33 0.32 0.34 0.29 0.29 0.31 0.31 0.33 0.36 0.40 0.46 0.47 0.47 0.52 0.55 0.60 0.67 0.73 0.75 0.74 0.71 0.68 0.65 0.66 0.71 0.75 0.79 0.81 0.83 0.84 0.86
0.43 0.46 0.58 0.59 0.44 0.42 0.40 0.37 0.38 0.36 0.31 0.28 0.26 0.25 0.29 0.33 0.31 0.31 0.36 0.36 0.37 0.40 0.44 0.47 0.49 0.50 0.53 0.52 0.53 0.59 0.67 0.72 0.73 0.72 0.70 0.70 0.67 0.68 0.76 0.81 0.87 0.93 0.94 1.00
0.39 0.52 0.71 0.65 0.43 0.52 0.47 0.39 0.37 0.36 0.30 0.27 0.27 0.27 0.26 0.30 0.35 0.34 0.35 0.38 0.40 0.44 0.47 0.47 0.47 0.49 0.50 0.51 0.51 0.55 0.64 0.71 0.76 0.76 0.74 0.74 0.75 0.74 0.75 0.80 0.89 0.99 1.04 1.06

GEFSCGP_prec_meanprecacc_372.txt.gz
Total_Precipitation_Accumulation
2.37 1.97 1.35 0.82 0.67 0.62 0.56 0.66 0.75 0.74 0.74 0.83 0.87 0.74 0.71 0.64 0.64 0.69 0.66 0.71 0.86 1.08 1.31 1.49 1.71 1.99 2.22 2.29 2.35 2.55 2.79 2.94 3.18 3.44 3.50 3.39 3.34 3.34 3.31 3.14 2.95 2.78 2.63 2.55
2.02 1.43 0.68 0.49 0.51 0.54 0.58 0.68 0.70 0.69 0.68 0.80 0.86 0.79 0.73 0.73 0.69 0.70 0.67 0.67 0.81 1.01 1.20 1.39 1.61 1.85 2.04 2.21 2.30 2.49 2.71 2.81 2.90 3.13 3.38 3.35 3.38 3.43 3.51 3.46 3.29 3.08 2.93 2.85
1.53 0.92 0.52 0.57 0.67 0.64 0.54 0.56 0.61 0.66 0.71 0.86 0.96 0.99 0.77 0.73 0.69 0.63 0.61 0.66 0.81 1.00 1.11 1.25 1.46 1.66 1.83 2.07 2.30 2.42 2.60 2.75 2.82 3.14 3.66 3.71 3.68 3.61 3.61 3.61 3.55 3.37 3.16 3.05
1.32 0.76 0.59 0.64 0.63 0.61 0.58 0.40 0.52 0.63 0.91 1.11 1.06 1.33 0.86 0.78 0.74 0.64 0.61 0.65 0.82 0.95 1.01 1.11 1.35 1.51 1.64 1.82 2.12 2.39 2.56 2.79 3.02 3.32 3.62 3.72 3.55 3.43 3.35 3.31 3.41 3.48 3.28 3.16
1.30 0.86 0.72 0.69 0.55 0.54 0.54 0.42 0.54 0.67 0.88 1.09 0.88 1.08 0.92 0.73 0.77 0.76 0.72 0.73 0.87 0.97 1.04 1.10 1.30 1.44 1.51 1.64 1.86 2.11 2.41 2.62 2.95 3.26 3.47 3.69 3.50 3.21 3.26 3.30 3.25 3.34 3.33 3.18
0.90 0.75 0.80 0.68 0.49 0.52 0.57 0.61 0.76 0.90 1.19 1.35 0.77 0.84 0.92 0.83 0.82 0.79 0.79 0.85 0.96 1.04 1.07 1.16 1.30 1.30 1.36 1.48 1.64 1.79 2.04 2.21 2.42 2.74 3.10 3.38 3.43 3.29 3.21 3.16 3.20 3.18 3.17 3.13
1.09 0.88 0.74 0.65 0.70 0.68 0.75 1.13 1.56 1.73 1.64 1.10 0.58 0.66 0.91 0.82 0.75 0.77 0.82 0.87 0.93 1.00 1.02 1.15 1.24 1.16 1.15 1.29 1.50 1.60 1.72 1.85 2.00 2.24 2.56 2.90 3.13 3.19 3.16 3.12 3.10 3.14 3.04 2.94
1.13 1.19 0.74 0.62 0.71 0.78 0.71 0.91 1.25 1.26 0.91 0.63 0.43 0.63 0.84 0.80 0.78 0.77 0.82 0.83 0.85 0.92 0.98 1.10 1.26 1.20 1.13 1.19 1.32 1.39 1.46 1.63 1.76 1.88 2.10 2.33 2.56 2.73 2.72 2.82 2.86 2.89 2.90 2.85
0.84 0.84 0.51 0.42 0.38 0.50 0.68 0.66 0.64 1.05 0.77 0.58 0.55 0.65 0.78 0.74 0.74 0.77 0.82 0.79 0.79 0.83 0.94 1.04 1.11 1.10 1.05 1.08 1.15 1.25 1.31 1.43 1.50 1.57 1.73 1.80 1.96 2.17 2.27 2.32 2.40 2.45 2.52 2.63
0.66 0.75 0.49 0.36 0.37 0.42 0.48 0.51 0.70 1.25 1.17 0.77 0.54 0.56 0.81 0.77 0.76 0.74 0.72 0.72 0.75 0.82 0.86 0.89 0.89 0.87 0.88 0.96 1.08 1.15 1.22 1.23 1.24 1.31 1.44 1.49 1.55 1.69 1.84 1.94 1.97 2.01 2.08 2.20
0.49 0.68 0.57 0.45 0.53 0.46 0.42 0.58 0.76 0.98 0.92 0.83 0.60 0.62 0.66 0.68 0.70 0.70 0.66 0.67 0.70 0.73 0.70 0.70 0.71 0.72 0.77 0.82 0.88 0.95 1.03 1.09 1.11 1.11 1.19 1.29 1.35 1.43 1.58 1.71 1.76 1.84 1.87 1.89
0.46 0.69 0.61 0.38 0.27 0.22 0.29 0.44 0.69 1.12 0.90 0.70 0.64 0.60 0.52 0.52 0.53 0.55 0.55 0.56 0.56 0.57 0.57 0.59 0.63 0.65 0.70 0.72 0.73 0.84 0.93 1.01 1.02 0.97 1.03 1.11 1.20 1.26 1.35 1.43 1.52 1.63 1.67 1.71
0.72 0.98 0.90 0.63 0.44 0.34 0.39 0.40 0.50 0.85 1.17 0.85 0.73 0.63 0.47 0.42 0.41 0.41 0.45 0.48 0.47 0.47 0.46 0.48 0.52 0.57 0.60 0.67 0.69 0.75 0.80 0.88 0.91 0.91 0.96 1.02 1.05 1.09 1.14 1.16 1.25 1.30 1.37 1.48
0.94 1.02 0.78 0.63 0.46 0.49 0.50 0.33 0.40 1.05 1.48 0.74 0.40 0.44 0.40 0.38 0.39 0.40 0.44 0.44 0.42 0.42 0.40 0.40 0.44 0.47 0.51 0.59 0.64 0.65 0.67 0.74 0.85 0.88 0.89 0.95 0.94 0.95 1.00 1.00 1.05 1.07 1.11 1.14
0.84 0.91 0.43 0.28 0.25 0.40 0.44 0.34 0.37 0.67 0.68 0.69 0.39 0.32 0.38 0.38 0.42 0.44 0.44 0.39 0.38 0.39 0.39 0.36 0.41 0.43 0.48 0.54 0.58 0.58 0.62 0.68 0.77 0.87 0.85 0.85 0.88 0.87 0.89 0.90 0.89 0.90 0.92 0.92
0.74 0.80 0.46 0.32 0.20 0.29 0.38 0.26 0.25 0.30 0.34 0.40 0.31 0.34 0.33 0.36 0.40 0.42 0.42 0.40 0.44 0.44 0.43 0.39 0.39 0.41 0.43 0.52 0.61 0.65 0.70 0.75 0.74 0.80 0.80 0.79 0.82 0.84 0.87 0.84 0.78 0.81 0.87 0.93
0.72 0.80 0.86 0.52 0.21 0.45 0.54 0.33 0.26 0.26 0.30 0.38 0.45 0.43 0.35 0.40 0.50 0.57 0.49 0.40 0.42 0.47 0.51 0.46 0.42 0.45 0.48 0.58 0.77 0.88 0.91 0.91 0.87 0.84 0.82 0.78 0.80 0.83 0.85 0.87 0.87 0.87 0.89 0.94
0.67 0.81 1.20 0.87 0.53 0.76 0.48 0.26 0.22 0.25 0.34 0.41 0.40 0.36 0.38 0.44 0.51 0.54 0.47 0.40 0.43 0.47 0.53 0.53 0.52 0.56 0.58 0.66 0.80 0.93 0.99 1.01 1.01 1.00 0.98 0.92 0.93 0.98 1.03 1.06 1.09 1.06 1.06 1.09
0.43 0.88 1.48 1.30 0.87 0.46 0.26 0.19 0.29 0.36 0.40 0.40 0.37 0.33 0.31 0.32 0.37 0.40 0.38 0.39 0.46 0.52 0.56 0.57 0.57 0.62 0.69 0.73 0.79 0.91 1.05 1.06 1.08 1.20 1.28 1.24 1.22 1.25 1.31 1.34 1.36 1.35 1.34 1.34
0.45 0.89 1.68 1.55 1.21 0.56 0.28 0.16 0.23 0.36 0.54 0.33 0.32 0.34 0.32 0.34 0.48 0.43 0.38 0.40 0.43 0.47 0.51 0.54 0.54 0.57 0.71 0.82 0.92 1.04 1.18 1.24 1.26 1.34 1.43 1.41 1.38 1.38 1.39 1.39 1.36 1.32 1.29 1.30
0.66 1.19 1.58 1.29 1.18 0.54 0.28 0.16 0.24 0.63 0.68 0.35 0.32 0.37 0.40 0.50 0.57 0.45 0.40 0.44 0.49 0.51 0.52 0.55 0.60 0.70 0.88 1.02 1.17 1.34 1.39 1.40 1.34 1.34 1.33 1.29 1.23 1.17 1.14 1.13 1.08 1.04 1.02 1.02
0.50 0.81 0.93 1.03 1.33 0.74 0.27 0.25 0.51 0.67 0.41 0.31 0.28 0.32 0.40 0.40 0.36 0.35 0.35 0.38 0.47 0.53 0.53 0.58 0.69 0.81 0.91 1.01 1.15 1.24 1.23 1.17 1.12 1.05 1.02 0.99 0.95 0.92 0.91 0.94 0.92 0.88 0.87 0.88
0.47 0.64 0.76 0.83 0.81 0.51 0.36 0.44 0.49 0.43 0.38 0.31 0.34 0.34 0.35 0.35 0.31 0.31 0.32 0.32 0.37 0.43 0.46 0.51 0.57 0.62 0.67 0.74 0.85 0.91 0.91 0.85 0.84 0.79 0.75 0.76 0.76 0.79 0.79 0.82 0.86 0.84 0.83 0.85
0.47 0.46 0.60 0.65 0.52 0.42 0.40 0.37 0.35 0.35 0.38 0.35 0.35 0.34 0.33 0.35 0.30 0.29 0.31 0.31 0.34 0.36 0.40 0.47 0.48 0.48 0.54 0.58 0.64 0.73 0.77 0.79 0.76 0.74 0.71 0.69 0.70 0.76 0.82 0.86 0.88 0.90 0.90 0.92
0.44 0.47 0.59 0.61 0.45 0.43 0.41 0.38 0.39 0.37 0.32 0.29 0.27 0.26 0.29 0.33 0.32 0.32 0.36 0.37 0.38 0.40 0.45 0.48 0.50 0.51 0.54 0.53 0.55 0.62 0.71 0.77 0.77 0.76 0.74 0.74 0.72 0.74 0.82 0.88 0.95 1.01 1.01 1.06
0.40 0.53 0.72 0.66 0.45 0.54 0.49 0.41 0.38 0.37 0.31 0.28 0.28 0.27 0.27 0.31 0.36 0.35 0.36 0.38 0.41 0.45 0.48 0.48 0.48 0.50 0.51 0.52 0.52 0.56 0.66 0.74 0.79 0.80 0.79 0.79 0.81 0.80 0.81 0.86 0.96 1.06 1.11 1.12

GEFSCGP_prec_meanprecacc_378.txt.gz
Total_Precipitation_Accumulation
2.38 1.97 1.36 0.83 0.68 0.63 0.57 0.66 0.75 0.74 0.74 0.83 0.87 0.74 0.72 0.65 0.64 0.70 0.67 0.71 0.86 1.09 1.31 1.49 1.71 1.99 2.22 2.29 2.36 2.58 2.83 2.98 3.22 3.48 3.53 3.43 3.41 3.43 3.43 3.26 3.06 2.87 2.69 2.58
2.03 1.43 0.68 0.49 0.52 0.55 0.59 0.69 0.71 0.70 0.68 0.80 0.86 0.79 0.73 0.73 0.70 0.70 0.68 0.68 0.81 1.01 1.20 1.39 1.61 1.85 2.04 2.21 2.31 2.51 2.74 2.86 2.94 3.16 3.41 3.39 3.44 3.53 3.64 3.60 3.42 3.17 2.99 2.89
1.53 0.92 0.53 0.57 0.67 0.64 0.55 0.58 0.61 0.67 0.71 0.86 0.96 0.99 0.77 0.73 0.69 0.63 0.62 0.67 0.81 1.00 1.12 1.25 1.46 1.66 1.83 2.08 2.30 2.43 2.61 2.78 2.86 3.18 3.69 3.75 3.75 3.72 3.75 3.76 3.68 3.47 3.22 3.08
1.33 0.76 0.60 0.65 0.64 0.62 0.59 0.41 0.52 0.64 0.92 1.12 1.06 1.34 0.86 0.78 0.74 0.64 0.62 0.65 0.83 0.95 1.01 1.11 1.35 1.52 1.64 1.82 2.12 2.40 2.58 2.81 3.05 3.37 3.68 3.76 3.60 3.52 3.46 3.43 3.52 3.57 3.34 3.21
1.31 0.87 0.73 0.70 0.56 0.55 0.55 0.43 0.55 0.68 0.89 1.11 0.89 1.09 0.93 0.73 0.77 0.76 0.73 0.73 0.87 0.98 1.04 1.10 1.30 1.44 1.52 1.65 1.86 2.12 2.43 2.64 2.98 3.30 3.51 3.73 3.55 3.28 3.36 3.40 3.35 3.42 3.38 3.22
0.91 0.76 0.81 0.69 0.50 0.54 0.59 0.64 0.79 0.93 1.22 1.39 0.78 0.85 0.93 0.83 0.83 0.79 0.79 0.85 0.97 1.04 1.08 1.16 1.30 1.30 1.36 1.49 1.65 1.80 2.05 2.23 2.45 2.78 3.15 3.43 3.48 3.35 3.28 3.25 3.30 3.27 3.22 3.17
1.10 0.89 0.74 0.65 0.71 0.70 0.79 1.18 1.62 1.80 1.70 1.13 0.58 0.67 0.92 0.82 0.75 0.77 0.83 0.88 0.93 1.00 1.03 1.15 1.24 1.16 1.15 1.30 1.50 1.61 1.73 1.86 2.03 2.27 2.60 2.95 3.19 3.26 3.24 3.19 3.18 3.22 3.10 2.97
1.15 1.20 0.75 0.63 0.72 0.80 0.73 0.95 1.29 1.30 0.94 0.64 0.43 0.64 0.85 0.80 0.78 0.77 0.83 0.83 0.85 0.92 0.98 1.11 1.26 1.21 1.14 1.20 1.33 1.40 1.47 1.65 1.78 1.90 2.14 2.37 2.62 2.81 2.81 2.90 2.93 2.97 2.96 2.89
0.85 0.86 0.52 0.43 0.39 0.52 0.70 0.69 0.66 1.08 0.80 0.60 0.56 0.65 0.79 0.74 0.74 0.77 0.82 0.80 0.79 0.83 0.94 1.04 1.11 1.10 1.06 1.09 1.16 1.26 1.33 1.44 1.51 1.59 1.75 1.83 2.01 2.24 2.37 2.41 2.47 2.51 2.58 2.68
0.68 0.76 0.51 0.38 0.38 0.44 0.50 0.53 0.73 1.29 1.21 0.79 0.55 0.56 0.81 0.78 0.76 0.74 0.72 0.72 0.75 0.82 0.87 0.89 0.89 0.88 0.88 0.97 1.08 1.16 1.23 1.24 1.25 1.32 1.46 1.51 1.57 1.73 1.92 2.04 2.05 2.07 2.14 2.26
0.51 0.71 0.59 0.48 0.55 0.48 0.44 0.61 0.79 1.02 0.96 0.85 0.60 0.62 0.67 0.68 0.70 0.70 0.67 0.67 0.70 0.73 0.70 0.71 0.71 0.73 0.77 0.82 0.88 0.96 1.04 1.10 1.12 1.12 1.21 1.31 1.37 1.45 1.63 1.80 1.84 1.89 1.91 1.95
0.49 0.72 0.64 0.40 0.29 0.24 0.32 0.47 0.71 1.16 0.94 0.72 0.65 0.61 0.52 0.52 0.54 0.55 0.55 0.56 0.56 0.58 0.57 0.59 0.63 0.66 0.70 0.72 0.73 0.84 0.94 1.02 1.02 0.98 1.04 1.13 1.22 1.28 1.38 1.48 1.59 1.68 1.71 1.75
0.77 1.04 0.95 0.65 0.46 0.35 0.41 0.42 0.53 0.89 1.22 0.88 0.76 0.64 0.47 0.42 0.41 0.41 0.46 0.48 0.47 0.47 0.46 0.48 0.53 0.57 0.61 0.68 0.70 0.76 0.81 0.89 0.92 0.91 0.97 1.03 1.07 1.11 1.16 1.21 1.31 1.36 1.41 1.51
1.00 1.10 0.83 0.66 0.47 0.50 0.51 0.34 0.42 1.09 1.53 0.78 0.42 0.45 0.41 0.39 0.39 0.41 0.44 0.44 0.43 0.42 0.40 0.40 0.44 0.47 0.51 0.60 0.64 0.65 0.67 0.75 0.86 0.89 0.90 0.96 0.96 0.97 1.02 1.03 1.10 1.13 1.16 1.17
0.89 0.96 0.46 0.30 0.27 0.42 0.46 0.35 0.39 0.69 0.70 0.71 0.40 0.33 0.39 0.39 0.42 0.44 0.44 0.39 0.38 0.39 0.39 0.36 0.41 0.43 0.48 0.55 0.58 0.59 0.62 0.69 0.78 0.87 0.85 0.86 0.89 0.89 0.91 0.92 0.92 0.94 0.97 0.97
0.78 0.85 0.48 0.34 0.21 0.31 0.39 0.27 0.26 0.31 0.35 0.40 0.31 0.35 0.34 0.36 0.40 0.42 0.42 0.40 0.44 0.44 0.43 0.39 0.39 0.41 0.44 0.52 0.62 0.66 0.71 0.76 0.75 0.80 0.81 0.80 0.84 0.87 0.89 0.86 0.81 0.85 0.92 0.98
0.76 0.84 0.91 0.55 0.23 0.47 0.57 0.34 0.27 0.27 0.31 0.39 0.45 0.44 0.36 0.41 0.51 0.57 0.50 0.40 0.42 0.47 0.51 0.46 0.42 0.45 0.48 0.59 0.78 0.89 0.92 0.92 0.88 0.85 0.82 0.79 0.81 0.87 0.89 0.91 0.90 0.90 0.93 0.99
0.70 0.85 1.26 0.92 0.56 0.79 0.49 0.27 0.23 0.26 0.35 0.41 0.41 0.37 0.38 0.45 0.52 0.54 0.47 0.41 0.43 0.48 0.54 0.54 0.53 0.57 0.60 0.67 0.82 0.95 1.00 1.02 1.02 1.01 0.98 0.92 0.93 1.00 1.08 1.11 1.14 1.11 1.10 1.14
0.45 0.93 1.55 1.36 0.91 0.48 0.27 0.19 0.29 0.37 0.41 0.40 0.38 0.33 0.31 0.33 0.38 0.41 0.39 0.39 0.46 0.53 0.57 0.57 0.58 0.63 0.71 0.75 0.80 0.92 1.06 1.08 1.10 1.21 1.29 1.25 1.23 1.26 1.32 1.39 1.43 1.42 1.41 1.40
0.48 0.94 1.76 1.61 1.26 0.58 0.29 0.16 0.24 0.37 0.55 0.34 0.33 0.35 0.32 0.35 0.49 0.44 0.39 0.40 0.44 0.48 0.51 0.54 0.55 0.58 0.72 0.83 0.93 1.05 1.20 1.25 1.27 1.36 1.45 1.42 1.39 1.39 1.40 1.40 1.39 1.38 1.36 1.37
0.70 1.25 1.63 1.33 1.21 0.56 0.28 0.16 0.25 0.65 0.69 0.36 0.33 0.38 0.42 0.51 0.58 0.46 0.41 0.44 0.49 0.51 0.52 0.55 0.61 0.71 0.89 1.03 1.18 1.36 1.41 1.42 1.36 1.35 1.35 1.30 1.24 1.18 1.15 1.14 1.10 1.07 1.06 1.08
0.52 0.84 0.95 1.05 1.36 0.76 0.28 0.26 0.53 0.69 0.43 0.32 0.29 0.33 0.41 0.41 0.37 0.35 0.35 0.38 0.47 0.53 0.53 0.58 0.69 0.81 0.91 1.02 1.16 1.25 1.25 1.19 1.14 1.07 1.04 1.00 0.97 0.94 0.93 0.95 0.94 0.91 0.91 0.93
0.48 0.65 0.77 0.85 0.83 0.53 0.38 0.46 0.51 0.45 0.40 0.32 0.35 0.35 0.36 0.36 0.31 0.31 0.32 0.32 0.37 0.43 0.46 0.52 0.58 0.62 0.67 0.75 0.85 0.91 0.92 0.87 0.85 0.81 0.77 0.78 0.78 0.80 0.81 0.84 0.88 0.88 0.87 0.90
0.47 0.47 0.61 0.66 0.53 0.43 0.42 0.38 0.36 0.36 0.40 0.37 0.36 0.35 0.34 0.36 0.31 0.30 0.32 0.32 0.34 0.37 0.41 0.47 0.48 0.49 0.54 0.59 0.65 0.73 0.79 0.80 0.78 0.76 0.73 0.70 0.72 0.78 0.84 0.88 0.91 0.93 0.94 0.96
0.45 0.48 0.60 0.61 0.46 0.43 0.42 0.39 0.40 0.38 0.33 0.30 0.28 0.27 0.31 0.35 0.33 0.33 0.37 0.37 0.38 0.41 0.45 0.48 0.50 0.51 0.54 0.53 0.55 0.62 0.72 0.78 0.79 0.77 0.76 0.75 0.74 0.76 0.85 0.91 0.97 1.04 1.05 1.11
0.41 0.53 0.73 0.67 0.45 0.55 0.50 0.42 0.39 0.38 0.33 0.29 0.29 0.29 0.28 0.32 0.37 0.36 0.37 0.39 0.42 0.45 0.48 0.48 0.49 0.50 0.52 0.52 0.53 0.57 0.66 0.75 0.81 0.83 0.81 0.81 0.83 0.82 0.84 0.90 1.00 1.10 1.16 1.19

GEFSCGP_prec_meanprecacc_384.txt.gz
Total_Precipitation_Accumulation
2.39 1.98 1.36 0.83 0.68 0.63 0.57 0.67 0.75 0.74 0.75 0.83 0.87 0.74 0.72 0.66 0.65 0.71 0.69 0.73 0.87 1.10 1.33 1.51 1.73 2.00 2.23 2.30 2.37 2.59 2.85 3.02 3.29 3.53 3.58 3.48 3.45 3.47 3.47 3.30 3.11 2.95 2.79 2.67
2.05 1.44 0.69 0.50 0.52 0.55 0.60 0.70 0.71 0.70 0.68 0.81 0.86 0.79 0.73 0.74 0.71 0.71 0.69 0.69 0.82 1.02 1.21 1.40 1.63 1.86 2.04 2.22 2.31 2.51 2.75 2.87 2.98 3.22 3.47 3.46 3.51 3.57 3.67 3.64 3.48 3.24 3.10 2.99
1.55 0.92 0.53 0.57 0.68 0.65 0.56 0.58 0.62 0.67 0.72 0.87 0.97 1.00 0.78 0.74 0.69 0.64 0.63 0.68 0.82 1.00 1.12 1.26 1.47 1.67 1.83 2.08 2.31 2.43 2.62 2.79 2.88 3.22 3.77 3.85 3.88 3.83 3.84 3.82 3.75 3.56 3.31 3.18
1.36 0.78 0.60 0.66 0.64 0.63 0.59 0.41 0.52 0.65 0.93 1.14 1.07 1.35 0.87 0.79 0.74 0.65 0.62 0.66 0.83 0.96 1.02 1.12 1.36 1.52 1.64 1.82 2.12 2.41 2.59 2.82 3.06 3.39 3.74 3.84 3.72 3.67 3.57 3.50 3.57 3.66 3.46 3.32
1.33 0.88 0.74 0.71 0.57 0.56 0.56 0.43 0.56 0.70 0.91 1.14 0.90 1.10 0.93 0.74 0.77 0.76 0.73 0.74 0.88 0.98 1.05 1.10 1.30 1.44 1.52 1.65 1.86 2.12 2.44 2.65 3.00 3.32 3.57 3.82 3.64 3.40 3.50 3.53 3.43 3.49 3.49 3.33
0.93 0.77 0.82 0.69 0.50 0.55 0.61 0.67 0.82 0.96 1.26 1.43 0.79 0.86 0.94 0.83 0.83 0.79 0.79 0.85 0.97 1.04 1.08 1.16 1.30 1.31 1.36 1.49 1.66 1.80 2.06 2.24 2.47 2.81 3.18 3.49 3.56 3.44 3.42 3.42 3.44 3.36 3.31 3.26
1.11 0.89 0.75 0.66 0.73 0.72 0.81 1.23 1.68 1.84 1.75 1.15 0.59 0.67 0.92 0.82 0.76 0.77 0.83 0.88 0.93 1.00 1.03 1.16 1.25 1.17 1.16 1.30 1.51 1.61 1.73 1.87 2.03 2.29 2.63 2.99 3.25 3.32 3.33 3.34 3.33 3.36 3.22 3.07
1.18 1.22 0.76 0.64 0.74 0.81 0.75 0.98 1.34 1.34 0.96 0.65 0.43 0.64 0.85 0.80 0.78 0.77 0.83 0.83 0.85 0.93 0.99 1.11 1.26 1.21 1.14 1.20 1.33 1.40 1.48 1.65 1.79 1.92 2.16 2.40 2.66 2.87 2.87 2.97 3.04 3.11 3.11 3.01
0.89 0.88 0.53 0.44 0.41 0.54 0.72 0.71 0.69 1.13 0.84 0.62 0.57 0.66 0.79 0.75 0.74 0.77 0.82 0.80 0.80 0.83 0.94 1.04 1.12 1.10 1.06 1.09 1.17 1.27 1.33 1.44 1.51 1.60 1.77 1.85 2.04 2.30 2.45 2.47 2.53 2.61 2.70 2.80
0.72 0.79 0.52 0.39 0.40 0.46 0.52 0.55 0.76 1.35 1.27 0.81 0.57 0.57 0.82 0.78 0.76 0.74 0.72 0.72 0.75 0.82 0.87 0.90 0.90 0.88 0.88 0.97 1.09 1.16 1.23 1.25 1.26 1.33 1.48 1.53 1.59 1.76 1.98 2.13 2.13 2.14 2.23 2.36
0.55 0.75 0.62 0.50 0.57 0.50 0.45 0.63 0.83 1.07 1.01 0.88 0.62 0.63 0.67 0.68 0.70 0.70 0.67 0.67 0.70 0.73 0.71 0.71 0.71 0.73 0.77 0.82 0.88 0.96 1.04 1.10 1.12 1.13 1.22 1.32 1.38 1.47 1.65 1.84 1.92 1.97 1.99 2.04
0.55 0.79 0.67 0.40 0.30 0.25 0.33 0.49 0.74 1.21 0.98 0.76 0.68 0.62 0.53 0.53 0.55 0.56 0.56 0.56 0.57 0.58 0.57 0.59 0.63 0.66 0.70 0.72 0.74 0.85 0.94 1.02 1.03 0.99 1.05 1.14 1.23 1.29 1.40 1.50 1.62 1.74 1.78 1.82
0.83 1.12 1.02 0.68 0.47 0.37 0.43 0.44 0.55 0.92 1.27 0.93 0.79 0.66 0.48 0.43 0.42 0.42 0.46 0.49 0.48 0.47 0.46 0.48 0.53 0.57 0.61 0.68 0.70 0.76 0.81 0.89 0.92 0.92 0.98 1.05 1.08 1.13 1.18 1.22 1.33 1.39 1.46 1.57
1.07 1.19 0.90 0.70 0.49 0.52 0.54 0.36 0.43 1.13 1.59 0.81 0.43 0.46 0.42 0.40 0.40 0.41 0.44 0.45 0.43 0.43 0.41 0.41 0.44 0.47 0.51 0.60 0.65 0.66 0.68 0.75 0.86 0.89 0.91 0.97 0.97 0.98 1.04 1.05 1.11 1.15 1.19 1.22
0.96 1.03 0.49 0.32 0.28 0.43 0.47 0.37 0.40 0.71 0.72 0.73 0.41 0.33 0.39 0.40 0.43 0.45 0.44 0.40 0.39 0.40 0.39 0.36 0.41 0.43 0.48 0.55 0.58 0.59 0.63 0.69 0.78 0.88 0.86 0.87 0.90 0.90 0.92 0.94 0.94 0.96 0.99 0.99
0.82 0.89 0.50 0.35 0.22 0.32 0.40 0.28 0.27 0.32 0.36 0.41 0.32 0.35 0.34 0.37 0.40 0.43 0.42 0.40 0.44 0.44 0.44 0.39 0.39 0.41 0.44 0.52 0.62 0.66 0.71 0.77 0.76 0.81 0.82 0.81 0.85 0.89 0.91 0.87 0.83 0.86 0.94 0.99
0.79 0.87 0.94 0.57 0.24 0.48 0.58 0.35 0.28 0.27 0.32 0.39 0.46 0.44 0.36 0.41 0.51 0.57 0.50 0.41 0.43 0.48 0.51 0.46 0.43 0.46 0.48 0.59 0.79 0.90 0.93 0.92 0.89 0.86 0.83 0.80 0.83 0.88 0.90 0.92 0.91 0.92 0.95 1.01
0.72 0.88 1.31 0.95 0.58 0.82 0.51 0.27 0.23 0.26 0.35 0.42 0.41 0.37 0.39 0.46 0.52 0.54 0.47 0.41 0.44 0.48 0.54 0.54 0.53 0.58 0.60 0.67 0.82 0.95 1.01 1.03 1.03 1.02 0.99 0.93 0.95 1.01 1.09 1.12 1.16 1.12 1.12 1.16
0.48 0.97 1.61 1.40 0.94 0.49 0.28 0.20 0.30 0.37 0.41 0.41 0.38 0.34 0.33 0.34 0.38 0.41 0.39 0.39 0.46 0.53 0.57 0.58 0.58 0.63 0.71 0.75 0.80 0.93 1.07 1.08 1.11 1.22 1.30 1.26 1.24 1.28 1.34 1.40 1.44 1.44 1.43 1.43
0.50 0.99 1.83 1.67 1.29 0.59 0.29 0.17 0.24 0.38 0.56 0.34 0.34 0.36 0.34 0.36 0.50 0.45 0.39 0.41 0.44 0.48 0.51 0.54 0.55 0.58 0.72 0.83 0.93 1.06 1.20 1.26 1.28 1.37 1.46 1.43 1.41 1.41 1.42 1.42 1.40 1.39 1.38 1.39
0.72 1.29 1.69 1.37 1.25 0.57 0.29 0.17 0.26 0.66 0.71 0.37 0.34 0.39 0.43 0.53 0.60 0.47 0.41 0.45 0.49 0.51 0.52 0.56 0.61 0.71 0.89 1.03 1.18 1.36 1.41 1.43 1.37 1.36 1.36 1.31 1.25 1.20 1.17 1.16 1.11 1.09 1.08 1.10
0.53 0.86 0.98 1.08 1.40 0.77 0.28 0.26 0.54 0.70 0.44 0.33 0.30 0.35 0.42 0.42 0.38 0.36 0.36 0.39 0.47 0.53 0.54 0.59 0.69 0.81 0.91 1.02 1.16 1.26 1.25 1.20 1.14 1.08 1.05 1.01 0.98 0.95 0.94 0.97 0.96 0.92 0.93 0.95
0.49 0.67 0.79 0.87 0.84 0.54 0.39 0.47 0.52 0.46 0.41 0.33 0.36 0.35 0.37 0.37 0.32 0.32 0.33 0.33 0.38 0.44 0.47 0.52 0.58 0.63 0.68 0.75 0.85 0.92 0.93 0.87 0.86 0.81 0.78 0.79 0.79 0.82 0.82 0.86 0.90 0.90 0.89 0.92
0.48 0.48 0.63 0.68 0.54 0.44 0.43 0.39 0.37 0.37 0.41 0.38 0.37 0.36 0.35 0.37 0.31 0.31 0.33 0.33 0.35 0.38 0.42 0.48 0.50 0.50 0.55 0.60 0.65 0.74 0.79 0.81 0.78 0.77 0.74 0.72 0.74 0.80 0.86 0.90 0.93 0.96 0.96 0.98
0.46 0.49 0.61 0.62 0.47 0.44 0.43 0.40 0.41 0.40 0.35 0.31 0.29 0.28 0.31 0.35 0.34 0.34 0.38 0.38 0.39 0.42 0.47 0.50 0.52 0.53 0.56 0.55 0.56 0.63 0.73 0.78 0.79 0.78 0.77 0.77 0.75 0.78 0.86 0.93 0.99 1.07 1.07 1.14
0.41 0.54 0.74 0.67 0.46 0.56 0.51 0.43 0.41 0.39 0.34 0.30 0.30 0.29 0.28 0.33 0.38 0.37 0.38 0.41 0.43 0.47 0.49 0.49 0.50 0.52 0.54 0.54 0.54 0.58 0.67 0.75 0.82 0.83 0.82 0.82 0.84 0.83 0.85 0.91 1.01 1.12 1.18 1.21